Location: Alafon
(8.4500°N, 4.2333°E)
Time: 18:36:05
(UTC+00:00)

A-11 Canister half - Pass Details

Date: 14 August 2021
Orbit: 1515 x 1685 km, 47.2° (Epoch: 19 September)

Event Time Altitude Azimuth Distance (km) Brightness Sun altitude
Rises 11:42:13 0° 243° (WSW) 4,650 11.5 84.1°
Reaches altitude 10° 11:45:34 10° 252° (WSW) 3,674 11.1 84.2°
Maximum altitude 11:53:47 36° 315° (NW) 2,263 10.6 84.1°
Drops below altitude 10° 12:02:13 10° 18° (NNE) 3,753 11.3 83.2°
Sets 12:05:44 0° 27° (NNE) 4,762 11.6 82.8°
